RH
88 92 94 96 96 97 99 102 102 99 96 96 96 95 94 92 90 88 87 90 94 97 100 101 100 97 95 96 98 98 96 92 87 83 81 81 80 77 75 72 71 68
95 97 98 97 98 100 102 104 102 99 99 100 100 99 97 94 92 90 89 93 98 101 102 102 99 97 98 101 102 99 95 92 88 85 84 83 81 78 77 75 74 71
96 97 97 96 99 102 101 102 101 102 104 102 101 102 98 95 93 91 93 98 103 104 103 102 101 100 102 103 101 98 95 92 89 86 86 85 84 82 81 80 77 72
96 96 97 98 102 102 100 100 101 103 103 101 103 103 97 95 95 95 98 101 104 105 103 103 103 103 103 102 100 96 94 92 88 88 88 88 87 86 85 83 79 74
97 99 100 101 101 100 100 100 100 101 101 102 104 102 97 97 98 98 101 102 102 103 103 103 103 103 103 101 98 96 94 90 89 90 92 92 90 88 86 84 79 74
100 102 103 101 100 100 100 100 100 100 100 102 104 101 99 100 99 99 101 102 102 102 103 104 103 102 102 99 97 95 93 92 93 95 96 96 93 89 85 82 79 75
102 103 102 101 100 100 101 100 100 100 100 102 104 103 102 101 100 100 101 102 102 101 102 104 104 101 100 98 97 96 95 96 98 99 99 97 92 88 85 81 77 75
102 102 102 101 100 100 100 100 100 100 100 103 106 105 103 103 103 102 102 102 102 101 102 104 103 101 100 99 98 99 100 99 100 100 99 95 90 87 84 80 77 77
102 101 100 100 100 100 100 100 100 100 100 103 106 105 103 104 104 103 101 101 102 103 103 103 102 100 101 100 100 100 100 100 100 100 97 92 88 85 82 80 80 81
102 101 100 100 101 100 100 100 100 101 102 103 105 104 103 103 103 103 102 101 102 104 104 103 101 101 101 101 100 101 101 100 100 97 93 90 87 83 82 83 84 84
102 101 100 100 100 100 100 101 101 101 101 102 102 102 101 101 102 103 104 104 104 104 103 102 101 101 101 101 100 101 101 100 98 94 90 86 84 83 85 88 88 86
103 102 101 101 100 100 100 101 101 101 100 101 101 101 101 101 102 103 103 104 105 104 101 101 101 101 101 100 100 101 100 98 97 93 88 85 84 86 88 89 88 86
103 102 101 101 100 100 101 101 100 100 101 101 101 102 102 102 103 103 102 102 102 102 100 101 102 100 100 100 101 101 99 96 93 89 85 84 86 88 89 88 86 81
103 103 102 101 101 101 100 100 101 100 101 102 103 103 103 103 103 103 101 101 101 101 101 102 101 100 100 101 102 101 98 95 91 87 85 85 86 87 88 85 80 73
103 102 101 101 101 101 101 100 100 101 102 104 105 105 104 104 102 101 100 101 101 102 102 101 100 100 100 101 101 100 96 93 90 88 87 86 87 88 86 79 71 62
103 101 101 102 101 101 101 101 101 103 105 105 106 105 103 102 101 101 101 102 101 101 101 100 100 101 102 102 100 98 96 94 92 90 88 87 87 84 78 69 60 51
102 101 101 102 102 101 102 104 105 105 104 104 104 103 101 100 100 101 102 103 101 100 100 100 100 101 102 101 100 99 98 95 92 90 89 87 83 77 68 60 50 40
102 103 103 102 103 103 103 105 105 104 103 103 102 100 100 101 101 102 102 101 101 101 101 100 100 101 100 99 99 100 100 97 91 87 83 78 72 65 58 49 39 29
104 104 104 103 103 103 105 105 103 101 102 103 101 100 100 101 101 102 103 101 100 101 101 100 100 100 100 99 99 101 102 99 92 83 74 65 58 53 46 36 26 20
104 104 104 103 102 104 105 103 100 100 102 102 101 100 100 101 102 102 102 102 101 100 100 100 100 100 100 100 101 103 102 97 87 75 66 59 51 43 34 24 18 16
103 103 103 102 103 105 103 99 99 102 103 102 100 100 101 102 103 102 101 101 100 100 100 100 100 100 100 100 102 103 98 88 78 68 61 54 44 34 24 18 16 17
101 101 101 102 103 103 100 99 102 103 102 101 101 102 103 102 102 102 101 100 100 100 100 100 100 101 102 101 101 97 89 78 70 63 55 45 34 24 18 16 17 19
100 100 102 103 102 99 98 101 103 102 101 103 103 103 103 102 101 100 100 100 100 100 100 100 100 101 104 102 96 89 80 71 64 57 46 34 24 18 16 18 20 21
100 102 103 101 98 98 100 103 104 102 102 103 103 103 103 101 100 100 100 100 100 100 100 100 99 102 103 97 87 80 74 66 58 47 35 24 19 17 17 20 22 23
102 102 100 97 97 100 103 103 103 103 103 103 102 101 101 100 100 101 100 99 100 101 101 101 101 102 98 89 80 75 70 61 49 36 25 19 17 17 19 22 24 24
102 99 96 97 100 103 103 103 102 102 102 103 102 100 100 101 100 100 100 100 101 101 101 102 101 96 90 83 76 71 65 53 38 26 20 17 16 18 21 23 25 26
Wind_Speed
59 60 60 60 61 61 62 63 64 64 64 64 65 65 65 66 68 69 70 71 71 71 72 72 73 74 74 74 73 73 73 73 72 72 71 71 71 72 72 73 74 75
59 60 60 61 61 61 62 63 64 64 64 64 65 65 66 67 68 70 71 71 71 72 72 73 74 74 74 74 73 73 72 72 72 71 71 71 71 72 73 73 75 76
60 61 61 61 61 62 63 64 64 64 64 65 65 66 67 68 69 70 71 71 71 72 73 74 75 75 74 73 73 72 71 71 71 71 70 71 71 72 73 74 76 77
61 61 62 62 62 62 63 64 64 64 65 65 66 67 68 69 70 71 71 72 72 73 74 74 75 74 73 72 72 71 71 71 71 70 71 71 72 73 74 76 77 78
61 61 62 62 62 63 64 64 64 64 65 66 67 69 69 70 71 71 72 73 73 74 74 74 74 73 72 71 70 70 70 70 70 71 71 71 72 73 75 77 78 79
62 62 62 62 63 64 64 64 64 65 66 67 68 69 70 71 71 72 73 74 74 75 75 74 73 72 71 70 69 69 70 70 70 71 71 71 73 75 77 78 79 80
62 62 62 63 63 64 64 64 65 65 66 68 69 70 70 71 72 73 74 75 75 75 74 73 72 71 70 69 69 69 70 70 71 71 71 73 75 77 78 79 80 81
63 63 63 63 63 64 64 65 65 66 67 68 69 70 71 72 73 74 74 75 75 74 73 72 71 69 69 69 69 69 70 71 71 71 73 75 76 78 79 80 81 83
64 63 63 63 63 64 65 65 66 67 68 69 70 71 72 72 73 74 74 74 74 72 71 70 69 68 68 68 69 70 70 71 71 72 74 76 77 78 80 82 83 85
64 63 63 63 64 64 65 66 67 68 68 69 70 71 72 73 74 74 74 73 73 71 70 68 67 67 68 69 70 70 71 71 73 74 75 77 78 79 81 84 85 87
64 64 64 64 64 65 65 66 67 68 68 69 70 71 72 73 74 73 73 72 71 69 68 67 67 68 69 69 70 70 71 72 74 75 76 78 79 81 83 85 87 88
65 64 64 64 64 65 65 66 67 68 69 69 71 72 73 73 73 72 72 71 69 67 66 66 67 68 69 69 70 71 72 73 75 76 77 79 81 83 85 87 88 89
65 65 64 64 65 65 66 67 67 68 69 70 71 72 72 72 72 71 70 68 66 65 65 66 67 68 68 69 70 72 73 74 75 77 78 80 82 84 86 88 89 90
65 65 65 65 65 66 66 67 67 68 69 71 71 72 72 72 71 70 68 66 64 64 65 66 67 67 68 70 71 73 74 75 76 78 80 82 84 86 87 88 89 90
66 65 65 65 66 66 67 67 68 69 70 71 72 72 72 71 70 67 65 63 63 65 66 66 67 67 69 71 73 74 75 76 78 80 82 84 85 86 87 88 89 91
66 65 65 65 66 66 67 68 69 70 71 71 72 72 71 70 68 65 63 62 64 65 65 66 66 68 70 72 73 74 76 78 80 82 84 85 86 86 87 89 90 91
66 65 65 65 66 67 68 68 70 70 71 72 72 71 70 68 65 62 61 62 64 64 65 66 67 69 71 72 74 76 78 80 81 83 84 85 86 87 88 89 91 91
65 65 65 66 67 67 68 69 70 70 71 72 71 70 68 64 62 61 61 62 63 64 65 66 67 69 71 73 75 78 80 82 83 83 84 85 86 87 88 90 90 89
65 65 65 66 67 68 68 69 70 71 71 71 70 67 64 61 60 60 61 62 63 64 65 66 68 70 72 74 77 79 81 84 84 84 85 86 86 87 88 89 89 86
64 65 66 67 67 68 68 69 70 71 71 69 67 64 61 59 59 60 61 62 63 64 65 66 68 71 73 76 78 80 82 84 85 85 86 87 88 89 89 88 85 80
65 65 66 66 67 67 68 69 70 70 69 66 63 60 59 58 59 60 61 62 63 64 66 67 69 72 75 77 79 81 82 84 85 86 86 87 88 89 88 84 79 73
65 66 66 66 67 68 68 69 69 68 66 63 60 58 58 58 59 60 61 62 63 65 66 68 71 74 77 78 80 81 82 83 84 85 86 87 88 86 83 78 72 66
65 65 66 66 67 68 69 69 68 66 63 60 58 57 57 58 59 60 61 62 64 66 68 70 73 76 77 79 80 81 82 83 84 85 86 86 85 82 77 71 65 60
65 65 66 67 68 68 68 68 66 63 60 57 57 57 57 58 59 60 61 63 65 67 69 72 74 76 78 79 79 81 82 83 84 85 85 84 80 76 71 64 59 55
65 65 66 67 68 68 67 65 63 60 57 56 56 57 57 58 59 60 62 64 66 69 71 73 74 76 78 79 79 80 82 83 85 85 83 80 76 71 65 59 54 52
65 67 67 68 68 67 65 62 59 57 56 55 56 57 57 58 59 61 63 65 68 70 72 73 74 75 77 79 79 80 82 84 84 83 79 75 71 65 60 54 51 49
Wind_Direction
295 294 294 293 293 293 293 294 294 294 294 295 295 295 295 296 296 296 296 296 296 295 295 294 293 292 292 291 290 290 289 289 288 287 287 287 287 287 287 287 288 288
296 295 295 294 294 295 294 294 294 294 295 295 295 295 296 296 296 297 297 297 296 296 295 294 293 292 291 291 290 290 289 288 288 288 288 288 288 288 288 288 289 289
297 296 296 296 296 295 294 294 294 295 296 295 295 296 296 297 297 297 297 297 296 295 294 293 292 292 291 291 290 290 289 288 288 288 289 289 288 289 289 290 290 290
297 296 296 296 296 295 294 294 295 296 295 295 296 296 297 297 297 298 298 297 296 295 294 293 292 292 291 291 290 290 289 288 289 289 289 289 289 289 290 291 291 291
297 297 296 296 295 295 295 295 295 295 295 296 296 297 298 298 298 298 297 297 296 295 294 293 292 292 291 291 290 290 289 289 290 290 290 290 290 290 291 291 292 292
298 297 296 296 295 295 295 295 295 295 296 296 296 297 298 298 298 298 298 297 296 295 294 293 292 292 292 291 290 290 290 290 291 290 290 291 291 291 292 292 293 294
298 297 296 296 296 296 295 295 295 295 296 296 297 298 298 298 298 299 298 297 296 295 294 293 293 292 292 291 291 291 291 291 291 291 291 292 292 292 293 293 294 295
298 297 297 296 296 296 295 295 295 295 296 297 298 298 298 299 299 299 298 297 296 295 294 293 293 292 292 291 291 291 291 291 291 292 292 292 293 293 294 294 295 296
299 298 297 296 296 296 295 295 295 295 296 297 298 298 299 299 299 298 298 297 296 294 294 293 293 292 291 291 291 291 291 292 292 292 293 293 294 294 295 296 296 297
299 298 297 296 296 295 295 295 295 296 297 298 298 299 299 299 298 298 297 296 295 294 294 293 292 292 291 291 292 292 292 292 292 293 293 294 295 296 296 297 297 297
299 298 297 296 295 295 295 295 296 297 297 298 298 299 299 299 298 297 296 296 295 294 294 293 292 291 291 292 292 292 292 292 293 294 294 295 296 297 297 298 298 298
298 297 296 295 295 295 295 296 297 297 298 298 298 298 299 298 298 297 296 295 295 294 293 292 291 291 292 292 292 292 292 293 294 295 295 297 298 298 298 298 298 299
298 297 296 296 295 295 296 297 297 298 298 298 299 299 299 299 298 297 296 295 294 293 292 291 291 292 292 292 292 292 293 294 295 296 297 298 298 298 299 299 299 299
298 297 296 296 296 296 297 297 298 298 298 299 299 299 299 299 297 296 295 294 293 292 291 291 292 292 292 292 292 293 294 295 296 297 298 298 299 299 299 299 300 300
299 297 296 296 297 297 298 298 298 298 299 300 300 300 299 298 297 296 295 294 292 291 291 292 292 292 292 293 293 294 296 297 298 298 299 299 299 300 300 300 300 300
298 297 297 297 297 298 298 298 299 299 300 300 300 300 299 298 296 295 294 293 292 292 292 292 293 293 293 294 295 296 297 298 298 299 299 300 300 301 301 301 301 301
298 297 297 298 298 298 298 299 299 300 301 301 300 300 298 297 295 294 293 292 292 292 292 293 293 294 294 295 296 297 298 298 299 300 300 301 302 302 302 301 301 301
298 297 298 298 298 298 299 299 300 301 301 301 300 299 297 296 294 293 292 292 292 293 293 294 294 295 295 297 298 298 299 299 300 300 301 302 302 302 302 302 302 301
298 298 298 298 298 299 299 300 301 301 301 300 299 297 296 295 293 293 292 292 293 293 294 295 295 296 297 298 299 299 300 300 301 302 302 302 302 302 302 302 302 301
298 298 298 298 299 299 300 301 301 301 300 299 298 296 295 294 293 293 293 293 294 294 295 296 297 297 298 299 300 300 300 301 302 303 303 303 303 303 303 303 302 301
298 298 298 299 299 300 301 301 301 300 300 298 296 295 294 293 293 293 293 294 295 295 296 297 298 298 299 300 300 301 301 302 303 304 304 304 304 304 304 303 303 302
298 298 299 299 300 301 302 301 301 300 299 297 295 294 294 293 293 294 294 295 295 296 298 299 299 300 300 301 301 302 303 303 304 304 305 305 305 305 304 303 303 302
299 299 300 301 302 302 302 301 300 299 298 296 295 294 294 294 294 295 296 296 297 298 299 300 300 301 301 302 302 303 304 304 305 305 305 305 305 304 303 303 302 301
300 301 301 302 302 302 301 301 300 298 297 295 295 294 294 295 295 296 296 297 298 299 300 301 301 301 302 303 304 304 305 305 305 305 306 306 305 303 303 302 302 300
301 302 303 303 302 302 302 301 299 297 296 295 295 295 295 296 296 297 298 299 300 301 301 302 302 302 303 304 305 305 306 306 306 306 306 305 304 303 302 302 301 298
303 303 303 303 302 302 301 300 298 296 296 295 295 296 296 297 298 298 299 300 301 302 302 302 303 303 304 305 306 306 306 306 306 306 306 304 303 302 301 301 299 297